P/2007 C1 ( Christensen )

Japanese version
Home page
Total 5,708 html files since Dec. 4, 1995
Updated on September 23, 2007

---------------------------------------------------------------------

* Profile

Discovery Date February 9, 2007
Magnitude 18.8 mag
Discoverer E. J. Christensen (Catalina Sky Survey)

* Pictures

* Orbital Elements

The following orbital elements are taken from MPC 59597:

Epoch 2007 Mar. 1.0 TT = JDT 2454160.5
T 2007 Mar. 5.2544 TT                                   MPC
q   2.050790             (2000.0)            P               Q
n   0.1511220      Peri.   95.6109      -0.8806519      -0.4590396
a   3.490740       Node    57.1157      +0.3603253      -0.8095818
e   0.412506       Incl.    8.0222      +0.3076002      -0.3658688
P   6.52
From 133 observations 2007 Feb. 9-Apr. 12, mean residual 0".5.

* Magnitudes Graph

        m1 = 15.2 + 5 log d + 10.0 log r

---------------------------------------------------------------------

The orbital elements are published at the MPC Ephemerides and Orbital Elements.
The magnitudes graphs are made with Comet for Windows.

---------------------------------------------------------------------

Copyright(C) 1995-2007 Seiichi Yoshida (comet@aerith.net). All rights reserved.